#timestamp,LO_Frequency,Hit,StdDev 
1554001215.5,286047000.5,N
1554001235.3,286046999.2,N
1554001255.2,286046997.8,N
1554001275.0,286046998.9,N
1554001275.9,286046998.9,N
1554001295.8,286047000.6,N
1554001315.6,286046995.1,N
1554001335.4,286046995.6,N
1554001355.3,286046997.2,N
1554001375.1,286047001.2,N
1554001395.8,286046998.9,N
1554001415.7,286046996.8,N
1554001435.5,286046997.3,N
1554001455.4,286046998.3,N
1554001475.2,286046998.4,N
1554001495.0,286047000.7,N
1554001495.9,286047000.7,N
1554001515.8,286047000.4,N
1554001535.6,286047002.3,N
1554001555.4,286046996.9,N
1554001575.3,286046998.9,N
1554001595.1,286046999.4,N
1554001615.9,286046998.2,N
1554001635.7,286047001.0,N
1554001655.5,286047000.3,N
1554001675.4,286047001.6,N
1554001695.2,286046998.1,N
1554001715.0,286047001.0,N
1554001715.9,286047001.0,N
1554001735.8,286046998.4,N
1554001755.6,286046998.2,N
1554001775.5,286047002.6,N
1554001795.3,286047003.7,N
1554001815.1,286047004.1,N
1554001835.9,286047002.0,N
1554001855.7,286047001.3,N
1554001875.5,286047001.9,N
1554001895.4,286047003.0,N
1554001915.2,286047003.0,N
1554001935.1,286047003.7,N
1554001936.0,286047003.7,N
1554001955.8,286047000.0,N
1554001975.6,286047000.9,N
1554001995.5,286047000.4,N
1554002015.3,286047002.5,N
1554002035.1,286047000.5,N
1554002055.9,286047002.6,N
1554002075.7,286047003.5,N
1554002095.6,286047001.5,N
1554002115.4,286047000.2,N
1554002135.2,286047001.2,N
1554002155.1,286047003.1,N
1554002156.0,286047003.1,N
1554002175.8,286047003.3,N
1554002195.6,286047005.7,Y
1554002215.5,286047003.3,P
1554002235.3,286047001.5,N
1554002255.2,286047000.7,N
1554002275.9,286047002.4,N
1554002295.7,286047002.7,Y
1554002315.6,286046997.1,P
1554002335.4,286046997.4,N
1554002355.2,286046994.9,N
1554002375.1,286046995.6,N
1554002376.0,286046995.6,N
1554002395.8,286046995.6,N
1554002415.7,286046991.8,Y
1554002435.5,286046996.2,P
1554002455.3,286046994.9,P
1554002475.2,286046996.2,P
1554002495.0,286046996.0,Y
1554002495.9,286046996.0,P
1554002515.8,286047004.1,P
1554002535.6,286047001.7,N
1554002555.4,286046999.8,N
1554002575.3,286047002.2,N
1554002595.1,286047002.4,N
1554002596.0,286047002.4,N
1554002615.8,286047001.9,N
1554002635.7,286047005.5,N
1554002655.5,286047003.5,N
1554002675.3,286047002.9,N
1554002695.2,286047001.6,N
1554002715.0,286047002.6,N
1554002715.9,286047002.6,N
1554002735.8,286047003.9,N
1554002755.6,286047003.6,N
1554002775.4,286047000.9,N
1554002795.3,286047003.5,N
1554002815.1,286047007.6,Y
1554002835.9,286047003.1,P
1554002855.7,286047005.7,P
1554002875.5,286047003.1,N
1554002895.4,286047003.2,N
1554002915.2,286047001.7,N
1554002935.0,286047001.4,N
1554002935.9,286047001.4,N
1554002955.8,286047004.3,Y
1554002975.6,286047000.7,P
1554002995.5,286046999.9,N
1554003015.3,286047002.8,N
1554003035.1,286047000.2,N
1554003055.9,286047000.4,N
1554003075.7,286046998.7,N
1554003095.5,286046998.9,N
1554003115.4,286046998.6,N
1554003135.2,286046999.1,N
1554003155.0,286046997.8,N
1554003156.0,286046997.8,N
1554003175.8,286046995.1,Y
1554003195.6,286046995.4,P
1554003215.5,286046997.9,N
1554003235.3,286046997.0,N
1554003255.1,286046997.4,N
1554003275.9,286046993.5,Y
1554003295.7,286046994.9,P
1554003315.6,286046996.3,N
1554003335.4,286046993.7,P
1554003355.2,286046994.6,Y
1554003375.1,286046999.6,P
1554003376.0,286046999.6,N
1554003395.8,286046997.3,N
1554003415.6,286046997.2,N
1554003435.5,286046995.5,N
1554003455.3,286046996.7,N
1554003475.2,286046998.0,N
1554003495.9,286046995.2,Y
1554003515.7,286046996.6,P
1554003535.6,286046996.5,P
1554003555.4,286046995.3,P
1554003575.2,286046995.9,Y
1554003595.1,286046999.4,P
1554003596.0,286046999.4,N
1554003615.8,286046997.5,N
1554003635.7,286046993.7,Y
1554003655.5,286046994.6,P
1554003675.3,286046996.3,N
1554003695.2,286046995.9,N
1554003715.0,286046995.3,Y
1554003715.9,286046995.3,P
1554003735.8,286046998.1,P
1554003755.6,286046999.4,N
